Location: Antioch Baptist Church
(32.6696°N, 85.7327°W)
Time: 12:22:32
(UTC+00:00)

Cosmos 1544 - Pass Details

Date: 14 July 2020
Orbit: 473 x 490 km, 82.5° (Epoch: 08 August)

Event Time Altitude Azimuth Distance (km) Brightness Sun altitude
Exits shadow 09:17:20 37° 243° (WSW) 751 3.5 -16.4°
Maximum altitude 09:18:06 43° 279° (W) 673 3.4 -16.3°
Drops below altitude 10° 09:21:32 10° 352° (N) 1,642 6.2 -15.7°
Sets 09:23:42 0° 359° (N) 2,524 7.3 -15.4°
